Location: Hawks Ness
(60.2333°N, 1.1667°W)
Time: 09:18:20
(UTC+00:00)

Cosmos 192 - Pass Details

Date: 22 October 2019
Orbit: 700 x 714 km, 74.0° (Epoch: 14 November)

Event Time Altitude Azimuth Distance (km) Brightness Sun altitude
Exits shadow 04:55:49 - 326° (NNW) 2,867 7.2 -16.1°
Reaches altitude 10° 04:57:30 10° 326° (NW) 2,199 6.6 -15.9°
Maximum altitude 05:02:28 76° 242° (WSW) 740 4.3 -15.3°
Drops below altitude 10° 05:07:25 10° 156° (SSE) 2,193 7.1 -14.7°
Sets 05:09:44 0° 155° (SSE) 3,110 7.9 -14.4°
